Theta_e
277 277 276 276 275 275 276 275 275 275 275 275 274 274 273 274 272 272 270 272 271 273 272 271 274 274 274 274 275 274 273 277 278 275 275 274 274 279 280 281 281 282 283 285 288 290 291 291 291 291 291 291 291 290 290 290 291 291 291 291 290 289 288 287 287 287 288 288 289 289 289 290 290 290
277 277 276 275 275 275 274 274 274 274 274 274 274 275 275 275 273 273 270 270 272 272 273 272 272 273 273 275 275 275 274 278 277 275 274 273 275 279 278 279 280 281 281 282 284 287 288 289 290 290 290 290 290 290 290 290 290 290 290 289 287 286 286 286 286 287 287 287 288 288 289 289 288 288
276 275 274 274 274 274 274 274 274 275 275 274 274 273 274 273 273 273 272 268 272 271 271 272 273 273 273 274 274 275 275 277 277 274 273 273 277 276 275 277 278 278 279 280 282 283 285 287 287 288 288 289 289 289 289 289 288 288 287 286 285 284 284 285 285 286 286 287 287 287 287 288 288 287
276 275 274 274 273 273 273 273 274 273 274 274 273 273 273 272 273 273 271 271 271 272 271 272 273 273 273 273 273 273 275 276 277 273 273 274 275 272 271 274 275 276 277 278 280 280 281 283 284 286 286 286 287 287 287 287 286 285 284 283 283 283 284 284 285 285 285 286 286 286 286 286 288 288
275 275 274 273 273 273 272 272 273 273 273 273 273 273 272 272 272 271 271 270 270 272 273 272 273 273 273 272 273 272 272 273 273 274 272 273 271 271 270 270 273 275 276 277 278 279 279 279 281 282 282 284 284 284 284 283 283 282 282 282 282 282 283 283 284 284 284 285 285 285 285 285 286 287
275 274 273 273 273 273 272 272 272 272 272 272 272 272 272 272 272 273 271 270 270 269 272 271 273 272 274 271 273 271 272 272 272 271 272 272 271 270 270 269 270 274 274 276 276 277 277 277 278 278 280 281 280 280 280 280 280 280 280 280 281 281 282 282 282 283 284 284 284 285 285 285 286 286
274 273 273 272 273 273 272 272 272 272 272 272 272 272 272 272 272 272 272 270 269 269 270 272 270 272 272 272 271 272 272 271 271 270 271 270 270 270 270 269 269 272 274 275 275 275 276 275 277 277 278 278 278 279 279 279 279 279 279 279 279 280 280 281 281 282 282 282 282 283 282 282 283 285
273 273 272 272 273 273 272 272 272 272 272 272 272 272 272 272 272 272 272 272 270 270 269 270 271 272 271 271 271 272 271 270 270 270 270 270 269 269 269 269 268 270 273 273 273 273 274 274 275 276 276 277 277 278 277 277 277 277 277 278 278 279 279 279 281 281 281 281 281 281 281 281 282 283
273 273 273 273 272 272 272 272 271 272 272 272 272 272 272 272 273 273 272 272 272 270 269 270 272 271 271 271 270 271 269 269 269 269 269 268 268 268 269 269 269 270 271 271 271 271 272 272 273 274 275 276 276 276 276 276 276 275 276 276 277 278 279 279 280 280 280 280 280 280 280 280 280 281
273 273 273 273 272 272 272 272 272 272 272 272 272 272 272 272 272 271 271 272 271 271 270 270 269 270 269 268 269 270 269 268 267 267 267 267 267 267 267 267 268 268 267 267 267 268 269 270 271 272 273 274 274 274 274 274 273 274 275 275 276 278 278 279 279 279 279 279 279 279 279 279 279 279
273 273 273 273 273 272 272 272 272 272 272 272 272 272 272 272 271 271 271 271 271 271 270 269 269 268 269 269 267 269 269 268 267 265 264 264 266 267 266 265 266 267 266 267 269 268 267 269 267 270 271 271 271 272 272 272 271 272 274 275 276 278 277 278 278 278 278 279 279 278 278 278 278 278
273 273 273 273 273 273 273 273 272 272 272 273 272 272 272 272 271 271 271 271 270 270 269 268 267 268 267 268 269 269 267 266 265 266 264 263 263 264 265 265 265 265 265 263 263 265 265 265 265 267 267 268 269 270 269 269 270 271 273 275 276 276 276 277 277 278 277 277 277 277 278 278 278 279
273 273 273 273 272 275 276 276 276 275 275 272 271 271 272 272 271 271 271 271 270 269 268 267 268 267 266 267 267 265 264 264 263 265 265 263 264 264 263 264 265 265 263 262 262 261 262 261 261 262 261 262 265 264 267 267 268 271 273 275 275 275 276 277 277 277 276 276 277 277 277 277 278 278
272 272 272 274 276 277 277 277 277 278 277 276 274 272 272 272 271 270 270 270 269 268 266 266 266 265 265 266 265 264 265 265 265 264 264 262 263 263 262 262 263 264 261 260 259 260 262 261 260 260 260 261 262 262 262 262 266 270 273 274 275 273 273 274 276 276 276 276 275 276 276 276 277 278
272 272 272 273 276 277 277 278 278 278 278 277 277 277 276 275 272 271 270 269 268 267 266 266 266 265 265 266 265 264 264 264 264 263 263 262 262 260 258 257 260 264 260 259 258 258 261 260 258 259 260 260 261 261 261 268 270 271 272 274 274 274 275 273 273 275 275 274 275 275 274 275 275 276
272 272 272 272 274 274 275 275 276 278 278 278 277 277 277 276 276 275 271 269 268 267 266 266 266 265 264 263 264 263 263 263 264 264 263 262 260 259 258 258 257 261 261 258 257 257 260 260 259 258 259 260 260 261 265 268 270 271 272 273 273 274 273 271 274 273 273 273 275 275 275 275 275 275
272 272 272 271 272 273 277 276 273 274 275 277 277 277 277 277 276 275 275 273 270 269 267 265 265 265 264 262 263 264 264 266 263 263 262 261 259 259 258 258 258 259 260 258 256 255 257 259 258 257 259 259 260 260 263 267 270 271 272 272 273 273 273 273 272 273 274 274 273 272 274 274 275 272
272 271 271 271 271 272 274 272 272 272 272 273 273 274 274 274 274 274 274 273 273 271 268 267 264 265 265 261 263 265 266 264 263 262 261 259 258 258 257 258 258 259 260 256 255 255 257 258 257 256 258 259 259 259 262 268 269 270 270 271 272 272 273 273 273 273 273 273 274 273 274 273 272 274
272 272 272 272 271 272 272 271 272 271 271 272 272 271 270 268 267 267 268 270 269 268 267 267 265 264 263 265 266 266 266 266 265 262 259 258 258 258 258 257 258 258 260 257 256 253 256 258 256 256 257 258 257 258 261 264 267 268 269 270 271 271 272 272 272 273 273 273 273 273 273 273 273 273
273 272 272 271 271 271 271 273 276 274 272 272 271 269 268 266 266 266 270 272 271 269 267 266 265 265 267 268 267 267 267 266 262 260 258 257 257 254 252 253 256 256 258 257 256 254 254 257 255 255 257 257 256 256 257 262 265 267 268 269 269 270 270 271 271 272 272 272 272 272 272 273 273 272
273 272 272 272 272 272 271 275 277 277 275 272 271 269 267 266 266 267 270 273 273 272 271 271 270 270 269 268 268 267 268 266 261 257 251 252 256 251 250 251 253 254 255 256 257 255 253 256 255 254 255 254 254 255 256 258 262 265 267 267 268 268 269 269 270 270 270 270 271 271 272 272 272 271
273 273 274 273 272 272 271 276 278 278 275 271 270 268 267 265 265 267 268 269 270 271 271 270 269 268 267 266 266 266 266 265 262 256 250 256 255 250 251 248 251 253 254 255 258 253 253 254 254 252 253 253 253 256 257 258 258 261 262 264 266 266 267 268 268 268 269 269 269 270 271 271 271 266
272 273 274 274 273 272 273 277 278 279 276 271 271 269 267 267 266 266 266 265 263 262 261 260 260 261 261 260 259 261 264 263 261 259 257 257 254 248 249 249 248 248 249 256 258 253 252 252 252 251 248 249 252 254 253 255 255 255 255 256 257 263 265 266 266 266 267 268 268 269 269 270 270 265
272 272 272 274 276 277 277 277 278 279 279 273 272 270 269 267 267 266 265 263 263 262 260 259 259 258 258 258 258 258 258 258 259 259 258 257 256 251 250 248 248 246 249 254 259 254 252 251 249 252 249 246 245 250 253 253 254 254 255 256 256 260 262 262 261 263 265 266 267 268 268 269 269 264
271 271 272 273 276 278 278 278 278 279 279 277 271 271 270 269 269 267 263 264 264 260 259 257 257 257 256 257 257 257 257 257 257 257 259 257 256 254 249 247 247 247 252 254 260 253 247 248 248 248 247 246 248 248 251 252 253 253 255 255 255 256 256 256 257 256 261 263 265 266 266 269 270 266
271 271 272 272 275 278 278 278 278 279 279 279 272 272 274 274 273 266 263 262 260 259 257 255 252 252 253 253 253 255 255 256 256 256 256 256 256 256 255 252 248 246 249 254 258 252 249 246 247 247 247 246 247 249 248 249 251 252 254 254 255 255 255 255 255 256 256 256 257 260 264 268 268 269
271 272 272 273 275 278 278 278 279 279 279 278 274 275 276 275 274 267 260 258 255 254 252 251 251 251 252 250 252 253 254 255 255 255 255 255 254 254 254 255 254 253 253 253 254 253 249 246 249 248 247 248 247 247 248 247 249 252 252 253 253 254 255 255 255 255 256 256 257 264 265 265 266 267
272 272 272 273 276 277 278 279 279 279 278 276 275 277 276 276 270 259 257 256 255 254 252 252 252 251 252 252 252 253 253 253 254 254 254 253 253 253 252 253 252 253 253 252 252 252 250 248 248 249 249 247 246 245 245 249 250 251 250 252 253 253 254 254 254 255 256 256 256 257 257 257 258 259
273 274 275 276 277 277 278 279 279 278 278 278 277 277 277 270 261 258 257 256 254 253 253 253 253 252 252 253 253 254 254 253 253 251 250 250 250 250 250 250 250 250 251 251 251 252 250 249 248 249 248 248 246 247 247 247 248 248 250 249 250 252 253 253 254 254 254 255 255 256 256 256 257 258
275 276 276 276 277 277 277 277 276 275 275 277 276 276 272 263 260 258 257 255 255 255 254 254 253 253 253 254 253 253 252 250 247 248 247 247 246 246 246 247 247 247 248 249 249 249 249 248 249 248 247 248 248 247 247 247 246 248 249 249 250 251 253 253 253 253 254 254 255 255 256 257 257 258
274 275 275 275 276 276 277 276 276 275 275 274 274 270 264 261 260 259 257 256 256 256 255 253 253 251 253 252 251 248 248 246 247 249 247 245 245 245 245 244 246 246 246 245 248 248 248 248 248 248 246 247 247 248 247 247 247 247 248 249 249 247 250 252 253 253 254 254 255 256 256 257 258 259
273 273 275 275 274 274 274 274 272 271 270 268 264 261 261 259 259 258 259 258 256 255 254 253 251 250 250 249 247 247 246 246 246 247 246 245 245 245 244 244 245 245 246 246 245 247 250 247 247 247 248 247 246 247 247 247 247 247 247 249 250 250 251 251 251 252 254 255 254 254 255 257 257 258
272 272 272 271 271 271 270 268 268 266 261 259 261 261 259 258 257 257 256 255 254 253 252 251 251 250 249 248 247 246 245 245 245 245 243 245 243 243 242 242 243 243 244 246 247 247 246 245 247 248 247 247 248 247 246 245 246 247 247 248 249 249 250 252 252 253 254 254 254 255 255 257 258 258
271 271 270 270 270 269 268 266 265 264 263 259 257 257 259 257 258 257 256 256 254 253 253 252 251 250 249 248 246 245 245 244 244 245 248 243 243 242 241 242 242 242 243 244 245 245 246 246 246 247 247 248 249 248 247 246 246 247 248 248 248 248 251 252 253 254 254 254 254 254 255 256 257 258
270 270 269 269 269 268 268 266 266 264 263 262 260 257 257 257 257 257 256 255 253 252 252 251 251 251 249 249 247 246 245 245 243 242 243 242 241 241 241 241 243 242 242 243 244 245 245 245 245 245 246 245 247 248 253 250 246 247 248 249 249 250 251 253 253 254 254 254 255 254 255 255 256 258
270 270 269 269 268 268 267 267 266 264 263 262 261 259 257 257 256 257 255 255 253 253 252 251 250 250 249 249 247 246 245 245 243 242 242 241 241 241 240 241 242 243 242 242 243 244 244 244 244 243 243 244 244 246 247 256 256 252 251 251 251 251 252 253 253 254 254 254 256 255 254 254 255 257
271 270 269 268 268 267 266 267 266 265 264 263 262 261 259 259 257 257 256 255 253 253 252 252 251 250 249 248 247 246 245 245 243 243 242 241 241 241 240 242 243 242 242 242 242 243 243 243 243 242 242 243 243 244 246 247 254 258 252 249 251 252 252 252 253 253 255 256 255 256 255 255 256 257
271 270 269 269 268 268 267 267 266 265 264 263 262 261 261 260 258 256 255 254 253 252 253 252 251 250 249 248 247 246 244 244 243 242 242 241 240 240 240 241 242 241 242 243 243 243 243 242 242 242 241 242 242 244 245 248 248 250 256 254 251 251 253 253 253 254 255 256 255 256 257 256 256 257
272 271 269 269 269 268 267 266 266 265 264 263 262 261 261 260 257 255 254 253 253 252 252 251 250 249 248 248 247 247 245 243 243 243 242 241 241 241 240 240 241 241 241 242 242 242 242 241 242 241 241 242 243 244 246 245 246 249 252 258 255 254 254 255 254 255 255 255 256 257 258 259 261 266
273 272 271 270 269 269 267 267 266 266 264 263 263 262 261 259 257 254 253 253 253 252 251 251 250 249 248 248 247 245 244 244 245 243 243 242 242 242 241 240 240 240 241 242 242 243 242 243 243 242 244 245 246 247 247 247 248 249 250 254 260 258 256 256 255 255 255 256 257 256 255 257 256 258
274 272 271 271 270 269 268 267 267 266 265 264 263 262 261 260 256 254 253 254 253 251 251 250 250 249 249 247 247 246 245 244 243 242 241 241 242 243 243 244 241 241 240 241 242 243 244 245 247 250 248 248 248 248 246 245 246 249 250 252 258 261 262 262 257 256 256 257 257 256 255 255 256 257
275 274 272 271 270 270 269 268 267 266 265 264 263 261 260 259 257 256 254 254 253 252 251 250 249 249 248 247 246 246 246 245 243 243 242 242 241 242 243 242 240 239 239 241 243 244 245 246 246 247 246 245 245 243 244 246 246 248 250 251 253 258 260 262 263 263 259 258 256 255 255 256 257 256
274 274 273 272 271 270 270 268 267 267 265 264 263 261 259 258 257 255 254 253 252 251 251 250 250 249 248 247 246 246 246 245 244 243 242 242 242 241 240 240 240 240 240 242 243 243 244 245 245 245 245 243 244 245 245 246 247 248 249 250 251 253 254 259 261 262 263 263 262 260 258 257 256 254
274 274 274 273 271 271 270 269 268 267 266 264 262 261 259 258 257 256 255 253 252 252 251 250 249 249 248 246 245 245 245 245 244 243 242 242 242 241 240 240 241 240 241 241 242 243 243 244 244 245 244 244 245 245 246 247 248 249 249 250 251 251 251 253 254 257 258 259 260 262 264 264 264 265
274 274 274 274 272 271 270 269 268 267 266 264 261 260 258 257 256 255 254 253 252 252 251 250 249 249 248 246 245 245 245 246 244 243 242 242 241 241 241 240 240 240 241 241 241 242 243 244 244 244 244 245 246 247 248 248 249 249 249 250 250 251 251 252 251 251 252 252 257 262 264 264 265 265
Wind_Speed
7 6 7 6 6 5 4 5 5 5 5 5 5 4 5 3 6 4 3 3 3 1 2 2 2 6 3 3 4 3 5 7 9 4 5 6 5 13 17 20 22 22 22 22 22 23 23 24 24 25 27 28 28 27 27 26 26 27 28 28 28 29 30 30 29 29 29 29 30 31 32 32 33 34
6 7 6 6 6 5 6 6 5 5 5 5 5 5 4 2 4 4 4 3 2 1 1 2 1 2 3 3 4 2 4 9 7 4 4 6 6 15 17 20 22 21 21 21 22 23 23 23 23 25 27 27 27 27 26 26 26 27 27 28 29 29 29 30 29 29 29 29 31 32 32 32 32 33
6 7 8 6 6 5 6 5 5 4 5 5 5 5 5 5 4 4 4 5 1 4 2 2 1 0 1 1 1 2 2 6 6 3 5 5 12 14 13 20 21 20 21 21 21 21 22 22 23 26 26 26 26 26 26 26 27 27 28 28 28 29 28 28 29 29 29 30 30 32 33 34 34 32
6 7 7 7 6 5 5 5 5 5 5 5 5 5 6 5 4 4 3 3 5 2 3 1 1 1 1 2 2 1 0 2 8 3 5 6 10 7 7 15 19 19 20 20 20 21 21 21 24 26 26 26 26 25 25 26 27 27 27 27 28 28 29 28 27 29 30 31 32 33 34 33 33 35
7 7 8 7 6 5 7 5 5 5 5 5 5 5 5 5 4 4 3 3 2 1 3 3 1 2 1 3 1 2 2 2 3 6 4 5 5 6 7 8 15 19 20 20 20 20 20 21 24 25 26 25 25 24 25 26 26 26 26 26 27 27 29 30 28 29 30 31 33 33 32 31 32 34
6 7 9 7 6 5 7 6 6 5 5 5 5 4 5 5 4 2 3 2 2 2 0 3 1 0 0 1 1 5 6 6 6 7 7 4 5 6 7 7 8 18 18 19 19 19 19 21 24 25 25 24 24 24 25 25 25 25 26 26 26 26 28 29 29 29 30 31 31 33 33 35 35 33
8 8 8 7 6 6 7 6 5 5 5 4 5 4 3 4 3 2 2 2 1 1 1 1 2 1 3 3 5 6 5 5 6 8 8 7 7 7 9 6 7 14 18 18 18 18 19 22 24 25 25 24 23 24 25 25 25 25 25 26 26 27 27 28 30 30 31 31 32 33 34 34 34 34
8 9 9 7 7 7 8 6 6 5 5 5 4 4 3 3 3 2 2 1 3 0 1 1 1 3 3 4 4 4 5 6 7 7 7 7 9 9 8 6 5 10 16 17 17 17 19 23 24 24 24 23 23 24 25 24 25 25 26 26 26 27 28 28 30 30 31 31 31 31 33 33 33 34
9 9 9 9 8 7 9 6 6 5 6 5 5 4 3 4 3 2 2 0 1 2 1 1 1 3 3 3 2 4 4 5 5 6 7 8 8 8 7 5 6 11 14 15 15 15 19 22 23 23 22 22 23 24 25 25 25 26 26 26 26 26 29 30 30 31 32 31 31 31 32 34 34 34
7 8 8 8 8 8 9 8 7 6 6 5 5 5 4 4 3 2 2 2 2 2 1 1 2 2 3 3 2 4 6 6 6 7 7 7 6 7 7 6 6 5 6 6 7 10 15 19 22 21 22 22 23 23 24 25 25 25 25 25 26 28 30 30 30 30 31 31 32 32 33 33 34 33
7 7 8 8 8 8 8 8 8 7 6 6 6 5 5 4 4 3 3 3 3 2 2 2 2 1 3 2 3 4 6 6 6 6 8 8 6 6 7 8 5 5 6 9 14 14 15 19 15 18 20 21 21 23 24 24 25 25 25 26 28 29 30 30 29 29 30 30 31 32 32 32 33 33
7 7 7 8 7 7 7 7 6 7 7 6 6 5 5 5 4 4 4 3 3 3 3 2 1 2 1 3 3 4 6 5 4 4 5 8 8 8 7 7 8 6 6 7 9 9 11 13 14 16 18 19 22 24 23 23 24 24 25 28 29 30 30 30 29 30 31 31 31 31 32 32 32 33
7 7 7 7 6 6 9 11 9 8 8 7 7 5 4 5 4 4 4 4 4 3 3 1 1 1 2 3 3 4 4 4 4 5 6 7 7 8 8 7 6 4 4 7 9 8 7 10 9 8 9 10 17 17 21 19 22 24 28 28 30 31 31 30 30 30 30 29 29 30 31 31 31 33
7 7 6 6 11 13 14 13 13 14 13 11 8 6 5 5 5 4 3 4 4 3 3 1 1 1 2 3 4 3 3 3 4 5 6 7 7 7 7 7 4 1 3 8 9 8 5 7 9 7 8 8 10 10 12 11 18 25 28 27 27 26 28 29 30 31 31 31 31 29 30 32 33 33
9 7 7 6 10 11 12 11 15 14 13 12 12 13 10 7 5 4 5 4 4 3 3 2 1 1 1 2 4 2 2 3 4 5 5 6 6 5 8 9 4 2 6 7 9 8 4 6 9 8 7 7 8 9 10 22 27 26 25 26 26 27 29 29 31 32 33 32 31 31 31 31 32 32
9 9 8 7 6 6 7 7 8 11 13 13 12 11 9 8 9 7 5 4 4 4 3 2 2 3 2 2 2 1 2 3 4 5 5 5 3 5 6 6 6 4 7 8 8 10 4 4 7 9 9 8 7 9 17 25 25 24 24 24 25 27 28 25 30 29 29 31 31 31 32 32 33 33
9 9 9 8 6 6 12 7 6 7 8 11 11 10 10 10 10 9 8 8 5 3 4 4 1 3 2 3 0 0 3 4 5 5 5 2 2 4 6 7 7 7 7 6 7 9 7 2 6 9 9 8 8 10 15 23 24 23 22 22 24 26 30 31 29 30 31 31 31 30 32 33 34 29
10 10 10 9 8 7 8 7 8 7 6 5 5 5 6 7 7 7 7 6 6 6 4 4 4 3 5 2 1 2 3 4 5 5 3 1 3 5 7 8 9 7 4 4 8 6 3 0 7 10 8 7 9 8 15 24 23 21 20 20 23 27 28 29 29 29 30 31 31 31 32 27 28 34
9 9 9 9 10 9 8 7 9 8 7 6 6 7 7 5 3 2 3 4 5 5 4 5 5 4 3 4 2 2 3 5 3 2 2 2 3 5 7 8 6 4 1 4 4 5 7 4 6 8 10 10 10 8 13 19 20 19 19 22 25 27 28 28 29 29 29 31 31 31 31 33 34 32
7 8 9 9 9 9 8 12 17 12 8 7 8 7 6 5 3 2 5 7 7 7 6 5 5 5 4 4 3 3 3 2 4 3 4 1 0 2 4 6 5 4 3 5 3 6 7 5 8 9 9 9 11 9 7 14 16 18 21 23 25 26 26 27 28 28 29 29 30 30 30 31 32 33
7 8 9 8 7 9 9 14 19 18 15 9 9 9 8 6 5 4 3 7 9 9 9 9 9 7 6 4 2 1 2 3 4 3 3 1 1 2 4 4 4 5 4 3 3 6 10 7 9 11 8 9 10 8 7 6 10 17 23 25 25 24 23 24 25 27 28 29 28 29 30 31 32 35
7 8 15 11 9 9 9 18 19 19 15 9 9 9 9 7 6 5 4 6 7 11 10 10 9 8 6 6 4 2 2 3 5 5 1 1 2 1 0 3 3 7 4 2 5 6 7 9 8 10 7 8 6 6 3 2 7 18 18 22 25 25 24 24 24 25 26 26 27 28 30 30 31 21
6 8 11 16 13 11 12 20 20 21 16 10 10 10 8 9 9 8 9 8 8 5 4 3 4 4 6 5 3 2 3 3 3 2 3 1 2 1 1 1 4 5 3 1 8 6 7 9 7 9 13 8 5 6 6 9 6 5 7 9 12 21 25 24 22 22 23 25 26 28 29 29 27 17
8 8 8 14 20 20 21 21 21 21 20 12 10 8 8 8 8 8 9 7 8 5 5 4 4 4 3 3 2 1 1 1 1 2 2 2 2 2 2 1 1 1 4 3 9 6 5 1 6 6 2 5 11 7 12 14 14 9 5 7 6 17 22 20 15 18 21 23 27 28 29 27 28 19
10 9 9 8 18 23 22 21 22 21 20 15 9 9 8 7 7 12 7 8 9 6 5 4 4 3 2 2 2 1 2 2 1 0 1 2 2 2 3 3 3 5 7 5 9 4 4 3 6 3 3 1 7 11 14 13 13 12 10 7 8 9 11 9 7 10 15 22 24 28 27 28 30 23
9 10 10 10 17 23 22 22 22 22 20 19 11 10 12 13 16 11 8 7 6 5 5 4 3 2 1 1 1 2 2 2 1 1 2 2 1 2 2 3 3 2 6 4 10 4 4 4 1 5 4 5 9 5 13 17 12 4 11 13 10 8 9 10 8 8 9 8 11 20 26 32 29 30
10 8 8 10 19 22 23 22 22 20 21 17 12 17 18 16 18 14 8 8 7 6 5 5 5 4 4 4 4 2 3 2 2 2 2 2 2 2 3 4 4 5 6 6 6 5 2 3 3 5 8 5 10 12 10 8 15 15 14 13 11 11 8 10 11 9 10 14 12 30 30 29 28 31
8 9 10 12 22 22 22 22 22 21 19 11 19 20 19 18 16 12 11 7 7 7 6 5 5 6 4 3 3 3 2 2 2 2 2 2 2 2 2 4 4 6 6 6 5 4 3 4 5 4 6 8 9 11 15 14 11 11 13 17 13 4 5 9 11 10 10 12 14 14 13 16 16 17
9 11 17 19 22 22 22 24 23 19 20 19 21 21 20 15 10 10 9 8 7 7 7 7 6 6 6 5 3 4 3 2 1 0 2 1 1 1 3 4 5 5 4 4 3 4 2 3 5 5 6 6 7 9 8 15 14 14 12 15 18 15 16 11 8 12 11 10 10 13 10 11 15 13
16 18 18 21 23 23 20 15 12 9 9 19 23 22 15 11 9 9 9 9 8 8 7 7 8 8 5 4 3 2 2 2 2 2 1 1 3 3 5 8 2 3 5 4 3 2 2 2 3 5 7 8 7 11 10 12 17 12 7 10 14 19 6 2 12 11 13 12 14 14 16 12 11 13
11 15 16 14 18 13 19 14 11 9 9 12 14 9 9 9 10 9 12 13 10 7 7 7 5 5 5 4 4 2 3 3 2 1 0 1 2 3 4 3 7 3 4 3 3 2 1 2 3 4 7 10 9 9 10 8 14 15 11 8 9 11 17 17 11 11 11 13 12 16 14 14 11 8
11 10 11 13 11 11 12 11 8 7 7 7 6 9 8 7 7 8 8 6 4 4 5 5 6 6 6 5 5 3 3 4 2 0 1 1 2 2 3 5 5 5 7 1 2 2 2 2 4 4 6 9 12 11 5 7 12 14 13 10 10 11 11 13 15 13 12 12 14 14 14 13 13 11
8 8 9 10 10 11 12 10 9 8 8 8 8 9 9 8 9 9 10 10 9 9 10 11 10 9 7 5 4 5 3 3 2 0 1 1 0 2 0 2 6 5 7 11 9 5 2 2 3 5 7 9 12 13 11 11 9 8 9 10 10 12 12 11 11 15 16 15 12 12 16 14 14 11
10 11 11 11 12 12 11 11 10 10 12 13 11 9 8 8 9 8 8 7 9 10 9 7 7 9 8 6 6 6 6 3 1 2 3 0 0 0 2 5 5 3 3 6 7 6 7 7 6 6 6 10 11 13 12 11 14 11 8 8 9 12 12 10 10 12 13 12 15 17 16 17 15 11
12 12 12 13 12 12 12 12 12 11 11 11 11 11 9 9 9 9 9 9 10 11 7 7 6 7 7 7 6 7 6 5 3 1 0 2 1 3 4 5 6 4 3 5 6 4 4 7 7 9 8 7 10 9 15 16 10 10 9 8 8 9 12 12 12 13 13 14 10 13 15 14 15 14
13 12 13 12 12 11 12 12 11 11 12 11 11 10 9 10 10 10 12 11 9 10 10 9 7 7 7 7 7 6 5 6 5 4 2 1 2 3 4 6 5 6 4 4 6 4 4 5 5 6 8 10 8 11 10 4 7 7 9 11 8 9 11 13 13 9 11 10 12 11 14 16 17 17
13 12 12 12 12 12 13 12 12 12 12 12 12 11 12 12 11 11 9 8 8 10 12 8 8 8 7 6 7 7 6 6 5 5 4 3 3 3 5 5 6 4 4 4 3 4 2 3 3 3 5 7 8 9 13 5 10 12 8 8 11 10 12 12 12 11 7 10 11 10 13 15 17 16
14 13 13 13 13 13 13 12 12 11 11 11 11 11 11 10 8 10 12 9 9 9 8 8 8 7 7 7 7 7 6 6 5 5 6 5 4 5 6 6 5 3 4 4 2 3 3 3 4 3 2 5 9 10 14 11 11 5 1 9 13 15 12 12 12 12 14 8 10 12 11 13 15 13
13 14 15 14 13 13 13 13 13 13 13 12 12 12 11 10 11 12 13 9 13 12 10 9 10 8 9 8 8 8 7 7 6 6 5 5 6 6 5 5 4 3 3 6 3 3 2 2 5 4 3 4 6 8 8 11 13 16 17 22 15 14 12 10 13 13 12 14 11 10 9 11 19 29
15 14 13 13 13 12 12 11 12 12 12 12 12 12 11 11 12 17 17 12 11 11 13 11 11 8 8 8 8 6 6 7 8 6 6 6 5 6 6 4 3 3 3 5 6 5 3 5 4 4 5 6 8 9 9 11 14 15 15 16 18 15 13 12 13 13 15 12 13 11 11 11 11 12
13 14 14 13 13 13 13 13 13 12 12 12 12 10 11 11 14 19 20 16 12 15 13 11 13 11 9 9 9 9 9 7 6 6 5 5 6 6 7 5 3 1 1 6 5 6 6 5 4 10 10 8 8 8 7 7 10 10 11 12 14 19 21 19 14 13 13 15 12 13 13 12 13 12
14 14 13 13 14 13 13 13 13 13 12 11 11 11 11 11 13 13 11 13 12 12 13 15 15 11 9 9 9 8 8 8 8 7 7 6 6 6 7 5 4 3 4 6 6 7 6 5 7 7 6 5 4 3 6 8 12 13 12 11 10 14 19 22 23 20 15 13 14 14 13 14 9 11
14 13 13 12 13 13 13 13 13 13 12 11 11 11 11 11 11 12 14 16 16 14 15 15 11 9 9 8 9 9 8 8 7 7 7 7 7 7 7 7 6 5 5 6 6 6 7 7 5 6 5 3 3 3 8 10 10 12 13 13 13 11 11 16 19 22 21 21 18 13 11 11 14 17
14 13 12 11 12 13 13 13 13 12 12 12 11 11 11 13 14 16 16 19 19 18 15 16 13 10 10 9 8 8 8 8 7 8 8 7 7 7 5 5 3 3 3 5 6 6 5 5 4 5 5 5 4 5 8 9 10 11 11 12 12 13 15 13 11 13 14 13 14 16 19 21 19 22
13 13 12 11 12 12 12 12 12 12 12 11 11 11 11 12 14 15 16 17 17 17 13 14 12 9 9 9 10 10 9 7 7 6 6 6 6 7 5 4 4 3 4 4 5 7 5 5 5 4 4 4 4 5 9 8 10 11 12 12 14 12 11 13 15 18 16 15 11 18 23 23 23 23
Wind_Direction
98 93 96 97 97 85 78 71 68 72 70 70 71 74 119 142 128 161 145 183 146 105 104 74 0 55 5 16 348 3 353 354 27 14 2 354 326 5 14 7 1 358 356 350 345 344 345 345 346 347 345 341 339 339 341 341 341 342 340 341 341 340 337 334 332 331 329 327 326 325 324 324 325 323
104 104 98 97 97 92 83 82 75 74 79 74 66 71 56 51 130 154 134 138 119 125 115 115 2 355 354 4 353 7 352 353 30 7 359 351 350 19 11 5 360 356 351 346 343 343 344 344 345 344 340 338 337 338 340 340 341 340 340 341 340 338 335 332 331 329 327 326 325 324 323 322 322 323
106 108 105 104 101 97 96 92 86 80 81 80 76 66 65 53 78 113 111 120 109 127 144 72 8 256 304 338 347 344 328 354 22 19 7 356 15 23 12 5 358 352 346 342 341 343 343 343 343 339 336 336 336 338 338 339 340 339 340 340 338 336 332 329 328 327 325 326 326 325 325 327 325 324
117 114 111 114 115 113 105 97 91 88 81 86 84 75 77 69 62 83 90 99 145 117 132 174 237 300 338 301 66 326 195 357 27 34 8 21 28 25 16 5 356 347 341 338 340 342 342 342 340 335 333 333 335 337 337 338 339 340 339 338 336 333 328 325 327 327 329 328 326 326 326 327 327 326
122 122 117 116 114 117 110 109 106 98 95 92 87 85 82 79 64 80 89 120 136 146 134 131 158 316 121 342 113 16 32 25 29 22 19 43 31 25 13 6 351 343 338 335 338 340 339 339 334 332 331 331 334 335 337 338 338 338 338 337 334 331 326 324 329 328 329 329 327 325 324 326 326 328
128 126 122 119 119 119 117 120 115 116 112 103 98 94 97 97 90 90 116 109 130 155 72 55 338 264 293 59 34 26 15 23 17 11 13 30 28 14 10 359 345 338 333 331 333 336 336 334 331 329 328 330 333 336 337 338 338 338 337 335 332 329 325 322 326 329 327 325 326 325 326 328 330 323
134 129 129 132 131 128 118 117 117 119 114 108 107 111 109 106 104 100 107 118 105 89 21 95 10 21 2 38 15 17 43 32 17 7 8 8 2 8 356 352 342 330 328 326 328 330 332 330 328 325 326 330 334 337 338 338 337 336 334 333 330 326 323 322 328 329 327 328 328 328 328 326 326 325
144 141 136 142 139 132 123 126 126 125 123 124 128 121 113 112 114 87 89 72 116 28 129 313 76 6 50 29 15 33 33 30 19 15 357 359 353 346 337 335 329 321 321 320 322 327 328 325 324 324 326 330 335 338 338 337 336 335 333 331 329 325 319 325 332 330 329 328 326 325 325 323 322 322
147 148 147 146 143 138 130 136 137 142 139 140 135 133 127 127 122 117 114 96 121 168 207 268 90 79 38 51 14 51 37 19 24 13 359 346 339 327 317 318 319 318 314 312 316 323 323 320 320 322 325 332 337 337 336 336 336 334 332 329 326 324 321 330 332 330 328 329 327 325 323 322 323 322
152 150 148 149 148 148 145 150 151 151 148 141 137 135 138 134 135 142 153 167 205 179 234 75 36 47 36 2 21 74 44 29 10 355 344 333 323 321 320 320 319 313 308 311 312 321 319 315 319 319 324 332 335 337 337 335 334 331 329 328 327 325 325 331 331 328 325 324 324 323 322 322 323 322
149 148 149 152 157 156 154 152 156 151 147 144 143 146 147 146 155 167 175 175 187 184 114 46 61 40 0 25 17 43 53 49 30 349 329 320 318 317 316 312 310 313 309 303 308 311 313 310 315 317 324 330 333 335 336 334 331 328 329 329 328 326 325 331 329 325 324 324 323 322 322 321 322 322
153 155 158 160 163 158 155 152 151 149 149 144 145 154 148 157 168 169 170 175 170 114 92 119 95 359 7 9 63 71 42 27 11 2 329 306 314 314 311 305 307 308 312 311 307 307 306 304 309 317 321 328 335 336 334 331 328 327 329 327 326 324 323 322 326 328 325 325 325 324 323 322 321 320
161 163 162 161 159 155 158 159 154 157 156 150 154 159 160 169 168 165 168 161 126 129 134 143 67 43 29 17 40 35 33 17 340 327 314 299 299 302 301 302 299 298 320 311 299 299 309 304 305 312 319 327 335 328 327 324 324 326 326 327 324 321 320 323 327 325 324 326 326 326 327 324 321 318
168 166 158 162 164 165 165 167 167 166 164 160 155 161 170 168 163 167 157 139 146 149 148 146 124 58 56 62 66 53 4 351 328 310 307 297 299 303 293 289 278 72 347 311 300 291 294 300 297 301 306 313 328 322 324 311 320 323 324 321 318 317 319 321 326 326 328 329 329 329 327 325 321 318
169 166 165 166 173 172 172 173 176 171 167 164 165 170 171 170 164 154 156 157 153 158 154 162 113 120 121 77 78 39 351 328 305 297 296 293 305 320 328 320 314 124 10 315 303 295 315 318 311 311 307 308 311 310 306 317 321 320 319 319 319 319 321 324 326 327 329 328 329 329 327 324 322 321
168 168 167 172 175 173 169 172 176 172 171 166 167 169 173 173 173 171 159 149 151 160 160 151 163 125 102 98 65 3 346 302 295 293 292 291 316 314 304 290 293 314 349 315 306 296 305 308 292 300 303 309 309 306 313 317 318 317 316 317 318 320 322 323 325 327 327 328 328 328 325 322 321 321
171 168 167 167 168 165 168 164 157 150 163 169 172 172 173 161 155 155 157 160 160 151 144 148 172 114 115 96 83 269 284 286 285 290 284 303 312 294 282 281 295 308 327 310 304 293 297 267 308 299 295 300 306 309 313 313 314 316 317 317 317 319 322 324 325 327 327 327 328 327 325 322 321 319
175 172 169 166 166 172 167 159 155 149 153 159 163 163 154 153 155 148 134 128 126 125 136 135 132 96 122 147 172 264 277 276 277 279 276 319 294 284 279 293 291 294 319 344 314 285 281 27 310 293 288 304 301 298 303 312 312 313 316 318 319 319 321 323 325 327 327 327 327 326 324 321 320 323
177 174 172 171 171 172 170 168 164 158 159 158 144 139 146 130 114 118 111 115 106 111 104 105 116 118 123 152 200 242 253 266 285 118 157 254 265 290 298 286 266 290 342 344 314 281 310 315 296 288 303 310 300 291 303 306 308 313 319 321 320 320 320 323 325 326 327 328 327 326 324 322 323 323
177 178 175 174 176 175 172 179 176 170 162 163 155 152 141 132 127 145 161 145 135 127 121 116 130 148 160 156 187 217 258 264 108 80 66 42 218 335 319 313 313 294 326 318 296 291 292 316 313 302 302 303 297 299 284 296 304 317 323 321 318 316 318 321 322 325 327 327 326 325 324 324 324 325
173 179 178 176 171 175 177 185 186 182 175 171 168 161 154 151 145 151 160 146 136 136 135 139 144 143 141 136 139 230 319 98 113 94 43 357 141 18 330 302 312 304 345 296 351 316 299 326 325 305 307 303 290 286 273 274 302 320 321 318 313 312 315 319 322 324 326 325 324 324 325 324 324 326
178 178 183 178 169 174 178 189 191 190 183 175 173 164 155 154 158 149 126 114 122 123 119 119 118 111 106 104 81 71 81 99 120 115 125 222 103 235 252 286 299 292 302 269 358 322 292 320 331 321 304 285 274 285 259 265 324 321 318 313 310 309 313 318 321 320 321 323 322 323 325 325 326 326
173 182 189 185 182 178 182 192 197 197 188 175 177 170 155 173 179 171 162 152 138 129 108 91 89 76 72 69 62 23 82 92 92 113 154 193 168 178 227 264 300 325 310 282 6 329 311 334 335 2 335 323 269 232 317 308 295 290 296 289 292 300 313 316 318 316 318 322 322 324 326 327 328 326
183 186 187 196 195 193 193 198 202 204 199 175 177 161 176 177 183 155 164 163 143 139 129 125 118 113 106 105 101 115 90 88 119 156 147 184 198 192 187 208 190 223 263 288 347 332 298 357 320 15 19 312 318 314 325 311 318 314 291 291 286 308 312 314 312 314 318 320 323 324 327 326 331 328
183 184 189 186 200 200 200 200 204 205 207 181 165 176 186 183 155 144 152 165 156 123 121 119 121 121 117 134 138 173 181 179 150 316 245 179 208 195 181 197 233 236 266 266 327 22 295 323 307 354 304 232 270 308 307 308 303 316 310 308 299 297 305 297 303 301 314 319 318 323 324 327 331 329
193 187 185 180 197 202 201 202 204 206 209 195 176 189 181 171 164 152 147 140 134 124 128 127 124 133 132 167 183 194 200 193 210 207 234 245 230 245 229 187 201 227 281 311 339 330 315 305 355 327 309 320 293 285 307 309 301 289 314 315 320 310 304 303 315 310 312 296 307 323 325 329 328 327
191 177 177 178 193 200 201 202 204 206 209 202 182 183 188 190 173 146 126 132 131 131 136 139 160 180 176 190 193 201 202 190 187 220 240 249 252 259 245 265 254 249 276 304 302 300 293 264 331 319 303 304 296 304 284 286 307 323 318 315 317 317 300 317 315 314 321 324 310 321 323 324 324 324
175 179 187 190 195 199 200 202 204 207 208 187 178 188 187 189 148 121 129 139 148 145 147 165 185 195 196 179 194 201 189 177 209 227 252 271 274 281 277 266 266 260 274 274 279 279 273 264 292 286 289 301 304 304 305 294 284 299 314 309 306 257 299 318 307 310 320 317 315 316 321 322 325 324
193 196 195 194 195 199 200 203 206 207 212 182 182 186 186 152 132 143 145 152 147 159 182 194 195 198 188 181 180 173 167 169 179 208 269 281 282 300 279 266 258 259 246 252 252 267 259 268 277 289 292 280 285 281 280 285 298 303 321 322 317 325 327 312 313 321 318 317 308 310 309 316 312 316
192 195 196 194 195 198 200 200 203 197 210 185 184 187 166 139 150 150 150 151 166 189 190 189 195 190 162 166 155 141 143 163 220 223 253 339 351 5 344 338 304 204 235 243 241 240 260 269 277 281 283 279 268 278 280 295 297 294 307 298 296 304 266 283 323 315 321 319 317 312 307 304 296 304
190 194 196 196 195 192 197 198 198 193 187 175 181 166 138 157 151 162 162 170 177 185 183 184 176 155 146 111 133 166 168 205 250 214 226 42 326 3 344 319 299 289 209 204 212 212 246 272 279 285 287 288 278 254 273 277 282 295 297 297 307 302 307 317 312 314 313 313 308 305 299 302 295 281
187 185 189 191 191 189 195 198 187 172 163 158 142 140 148 151 153 151 151 141 158 142 150 134 132 115 135 167 180 173 177 206 238 208 85 76 345 353 348 350 305 311 306 214 160 192 203 242 266 272 265 275 287 288 274 258 270 282 290 294 289 283 290 300 310 309 310 312 311 307 304 303 305 308
172 174 182 184 186 188 190 183 179 168 135 83 144 148 155 158 154 151 150 172 172 158 136 158 165 159 160 174 170 167 188 215 228 169 90 340 130 337 44 263 276 309 320 319 330 337 334 298 258 263 266 274 263 270 282 296 263 243 272 290 300 296 298 300 300 306 315 315 304 302 303 301 299 301
177 185 188 190 189 190 183 184 183 178 176 141 125 158 166 166 168 174 181 175 161 150 173 164 165 161 165 176 176 181 196 226 216 223 166 178 91 61 275 288 277 255 261 286 304 314 326 326 326 302 283 271 265 256 250 244 267 279 275 284 289 287 287 292 297 303 305 304 308 311 312 310 309 304
185 187 190 194 193 193 189 191 189 180 180 179 176 169 181 187 183 179 181 171 142 149 166 169 172 168 174 182 180 184 193 190 201 163 63 112 134 213 249 263 282 274 272 296 299 320 328 329 332 329 320 316 314 286 229 224 244 271 282 273 255 278 296 304 306 304 301 300 302 301 301 298 300 305
197 195 195 196 195 189 194 196 188 185 186 185 184 178 180 197 197 186 187 159 155 160 155 167 175 176 181 179 180 182 180 176 178 175 179 175 197 249 237 247 258 273 270 268 296 306 329 316 342 336 335 330 341 323 337 212 235 269 299 300 296 294 296 299 294 282 292 295 304 308 306 308 306 309
197 198 200 198 194 191 200 195 191 190 189 189 189 188 194 199 197 197 159 134 163 171 173 175 180 176 176 171 171 178 179 176 187 189 192 185 201 233 251 258 243 258 277 265 259 294 300 308 315 325 317 325 328 319 293 289 298 300 266 282 301 301 299 296 298 293 282 297 299 304 302 305 304 307
203 198 202 202 198 198 198 198 191 191 191 192 192 196 204 204 177 157 141 156 171 169 174 172 176 169 174 167 170 180 185 192 177 183 194 174 198 231 233 254 274 275 280 277 271 274 271 263 285 271 295 311 319 314 318 312 318 300 227 324 304 302 300 298 304 306 308 300 291 301 302 299 298 297
205 202 203 202 202 197 198 196 192 194 191 192 194 197 198 189 166 153 175 178 157 160 166 173 169 176 173 177 177 175 176 181 196 204 197 201 206 221 232 238 267 277 310 311 308 275 253 250 251 249 239 281 283 282 289 303 294 298 303 298 294 294 302 304 303 304 303 309 302 290 267 271 288 298
207 204 206 202 204 199 200 194 198 197 193 194 196 197 191 187 180 168 165 175 178 177 169 180 172 170 175 174 173 169 175 190 196 193 192 194 208 219 231 229 238 274 324 304 313 306 285 260 241 246 263 258 262 267 271 268 275 281 282 293 301 306 305 313 312 312 308 306 306 303 301 304 297 302
206 204 205 200 202 198 198 197 197 193 196 193 195 190 192 189 165 178 167 166 177 157 169 172 164 177 179 174 175 172 186 195 195 194 185 187 205 219 227 226 232 198 265 289 283 289 275 259 272 294 287 276 274 284 290 286 289 294 302 301 307 309 310 312 309 308 306 309 310 307 307 309 310 311
210 209 203 199 201 200 196 198 194 195 196 191 191 189 191 183 188 172 174 179 171 179 173 158 161 173 177 175 174 176 183 188 190 193 188 182 202 220 222 211 215 203 188 252 263 267 281 307 296 283 268 272 282 300 290 291 296 303 303 303 299 306 311 312 313 311 308 310 317 318 318 316 312 309
215 215 207 201 199 200 198 198 196 193 194 188 191 186 183 181 176 175 182 176 166 172 171 161 171 179 175 173 177 179 179 188 186 184 182 187 191 203 211 215 211 206 215 253 268 272 287 289 289 289 284 275 253 239 285 292 294 297 304 310 313 314 306 311 313 315 315 312 304 296 300 308 319 318
215 217 213 201 200 201 202 198 196 194 190 189 187 181 185 184 186 191 184 169 169 171 170 156 167 177 175 172 171 176 187 188 177 178 185 193 198 203 207 203 202 219 243 265 284 284 281 281 276 278 300 298 288 292 288 297 299 300 300 301 307 316 318 321 315 313 311 307 304 303 308 309 303 297
214 215 214 206 202 200 201 197 194 190 189 182 180 184 185 187 191 167 172 158 162 156 171 170 176 179 169 166 167 183 193 179 173 182 172 182 193 207 202 190 194 216 243 251 284 296 298 304 294 271 249 270 275 278 282 284 293 304 305 311 314 318 321 328 332 331 328 322 313 320 322 321 319 318